Hourly Data Report for June 26, 2012

All times are specified in Local Standard Time (LST). Add 1 hour to adjust for Daylight Saving Time where and when it is observed.

ABBOTSFORD A
BRITISH COLUMBIA

49°01'31.000" N
122°21'36.000" W
59.10 m
1100031
71108
YXX

Download Data

Hourly Data (June 2012)
Hourly Data Report for June 26, 2012
Temp Definition
°C
Dew Point Temp Definition
°C
Rel Hum Definition
%
Wind Dir Definition
10's deg

Wind Spd Definition
km/h
Visibility Definition
km
Stn Press Definition
kPa
Hmdx Definition


Wind Chill Definition


Weather Definition


TIME
00:00 Legend Double Dagger 11.3 8.4 82 34 6 10.0 100.63     LegendNANA
01:00 Legend Double Dagger 11.6 8.7 82 34 4 10.0 100.59     Mostly Cloudy
02:00 Legend Double Dagger 11.0 8.3 83   0 10.0 100.58     LegendNANA
03:00 Legend Double Dagger 11.0 8.4 84   0 10.0 100.54     LegendNANA
04:00 Legend Double Dagger 11.1 8.3 83   0 10.0 100.55     Cloudy
05:00 Legend Double Dagger 11.2 9.0 86   0 10.0 100.57     LegendNANA
06:00 Legend Double Dagger 11.3 9.2 87   0 10.0 100.57     LegendNANA
07:00 Legend Double Dagger 11.6 9.4 86 22 7 10.0 100.60     Cloudy
08:00 Legend Double Dagger 12.6 9.8 83 21 10 10.0 100.62     LegendNANA
09:00 Legend Double Dagger 12.8 10.0 83 22 11 10.0 100.64     Rain Showers
10:00 Legend Double Dagger 13.4 9.7 78 18 15 10.0 100.72     Cloudy
11:00 Legend Double Dagger 13.5 9.6 77 18 22 10.0 100.79     LegendNANA
12:00 Legend Double Dagger 13.0 9.5 79 17 21 10.0 100.85     LegendNANA
13:00 Legend Double Dagger 12.7 9.6 81 18 19 10.0 100.86     Rain Showers
14:00 Legend Double Dagger 12.6 10.3 86 18 14 10.0 100.90     Rain Showers
15:00 Legend Double Dagger 13.1 10.3 83 16 16 10.0 100.92     LegendNANA
16:00 Legend Double Dagger 14.2 10.1 76 16 22 10.0 100.92     Mostly Cloudy
17:00 Legend Double Dagger 14.4 9.5 72 18 24 10.0 100.92     LegendNANA
18:00 Legend Double Dagger 14.1 9.0 71 17 19 10.0 100.92     LegendNANA
19:00 Legend Double Dagger 13.9 8.6 70 17 20 10.0 100.94     Cloudy
20:00 Legend Double Dagger 13.5 8.4 71 17 19 10.0 100.98     LegendNANA
21:00 Legend Double Dagger 13.5 8.2 70 17 14 10.0 101.02     LegendNANA
22:00 Legend Double Dagger 13.3 8.0 70 18 13 10.0 101.04     Mostly Cloudy
23:00 Legend Double Dagger 12.3 8.0 75 19 7 10.0 101.05     LegendNANA

Notes on Data Quality.

Legend

  • E = Estimated
  • M = Missing
  • NA = Not Available
  • ‡ = Partner data that is not subject to review by the National Climate Archives
Date modified: